Location: Berrogain
(43.2522°N, 0.8550°W)
Time: 00:33:33
(UTC+00:00)

Daily predictions for brighter satellites

Satellite Brightness Start Highest point End
(mag) Time Altitude Azimuth Time Altitude Azimuth Time Altitude Azimuth
MetOp-A 4.2 00:06:53 65° NNW 00:06:53 65° NNW 00:10:58 10° NNW
Cosmos 2297 Rocket 2.2 00:14:23 73° ENE 00:14:23 73° ENE 00:19:42 10° NNE
Cosmos 2322 4.2 00:17:59 10° NW 00:22:42 47° W 00:22:42 47° W
CZ-2C R/B 3.4 00:22:28 10° N 00:28:08 62° WNW 00:28:30 61° W
NOSS 0 Rocket 3.8 00:22:40 10° NNW 00:28:45 71° WSW 00:28:45 71° WSW
Cosmos 1937 Rocket 4.1 00:24:07 10° NNW 00:28:06 47° WNW 00:28:06 47° WNW
Cosmos 1066 Rocket 4.3 00:36:30 63° E 00:36:30 63° E 00:41:48 10° NNE
Iridium 4 Rocket 3.7 00:38:11 67° ESE 00:38:24 68° E 00:44:09 10° N
Cosmos 2219 Rocket 4.4 00:37:49 10° WNW 00:39:03 12° W 00:39:03 12° W
Lacrosse 4 Rocket 2.6 00:45:40 38° NNE 00:45:40 38° NNE 00:48:16 10° NNE
Meteor 2-10 Rocket 3.8 00:41:00 10° N 00:46:32 68° ENE 00:47:00 65° ESE
Meteor 2-20 Rocket 4.3 00:48:01 64° W 00:48:15 65° W 00:53:56 10° N
Okean 3 Rocket 4.4 00:45:34 10° N 00:49:41 45° ENE 00:49:41 45° ENE
BlueWalker 3 4.1 00:52:58 20° NE 00:52:58 20° NE 00:54:11 10° NE
BREEZE-M DEB (TANK) 3.7 00:35:18 10° WSW 00:52:30 87° SSE 00:57:10 10° ENE
Cosmos 1553 Rocket 4.2 00:55:50 54° SE 00:56:58 64° E 01:03:18 10° NNE
USA 234 4.2 00:52:53 10° NE 00:58:59 43° NNW 01:04:21 13° W
ATLAS 5 CENTAUR R/B 3.4 00:58:12 53° SSE 00:59:13 60° ESE 01:15:02 10° NE
SeaSat 1 2.5 01:00:00 67° WNW 01:00:00 67° WNW 01:04:20 10° NNW
Cosmos 1842 Rocket 4.1 01:00:28 57° NNW 01:00:28 57° NNW 01:04:03 10° N
SL-16 R/B 3.5 00:56:20 10° N 01:01:36 37° ENE 01:05:31 16° ESE
ACS3 Solar Sail 1.6 00:56:23 10° NNE 01:02:24 85° ESE 01:03:08 70° S
Cosmos 1805 Rocket 4.2 01:09:10 10° N 01:13:21 48° ENE 01:13:21 48° ENE
SL-08 R/B 4.5 01:08:09 10° N 01:14:30 78° E 01:16:01 54° SSE
Cosmos 2237 Rocket 2.5 01:09:25 10° NNW 01:14:26 51° W 01:14:26 51° W
Meteor 2-4 Rocket 4.3 01:17:00 40° W 01:17:19 40° WNW 01:22:29 10° N
Cosmos 1814 Rocket 4.0 01:17:45 63° W 01:17:56 63° WNW 01:23:08 10° NNE
Cosmos 1980 4.2 01:13:28 10° NW 01:18:08 43° W 01:18:08 43° W
CZ-2C R/B 3.9 01:20:01 26° W 01:20:01 26° W 01:23:39 10° NW
COSMOS 2428 4.5 01:16:54 10° NW 01:19:25 18° W 01:19:25 18° W
IDEFIX/ARIANE 42P 3.2 01:17:57 10° NNE 01:22:59 45° E 01:23:52 41° SE
Cosmos 2227 Rocket 2.1 01:23:14 65° WSW 01:23:56 74° WNW 01:29:38 10° NNE
Sich 1 3.5 01:19:50 10° NNW 01:23:02 50° NNW 01:23:02 50° NNW
In-Cosmos 22 4.0 01:23:33 72° SSW 01:24:08 85° W 01:29:47 10° N
Cosmos 1655 Rocket 4.5 01:21:26 10° NNW 01:27:14 42° W 01:27:46 41° WSW
MSX 4.2 01:22:58 10° NNE 01:28:38 54° E 01:30:05 43° SE
Cosmos 1745 Rocket 4.3 01:24:39 10° N 01:30:43 59° E 01:33:25 33° SE
Cosmos 2263 Rocket 2.0 01:36:23 65° SSW 01:37:16 89° WNW 01:42:53 10° NNE
Cosmos 1408 Rocket 3.5 01:34:20 10° N 01:38:21 77° NNW 01:38:21 77° NNW
BREEZE-M R/B 4.5 01:39:39 10° WNW 01:45:04 46° SW 01:53:20 10° SSE
Cosmos 1417 Rocket 4.4 01:49:47 48° S 01:51:40 89° E 01:57:50 10° N
NOSS 2-2 (C) 4.2 01:56:25 32° E 01:56:25 32° E 01:58:34 10° NE
CENTAUR R/B 3.4 01:55:19 24° SE 01:57:11 30° ESE 02:02:34 10° NE
STPSAT 2 (USA 217) 4.4 01:57:35 73° SW 01:58:00 85° WNW 02:02:33 10° NNE
Cosmos 2297 Rocket 4.1 01:56:08 15° W 01:58:42 20° NW 02:02:44 10° N
Cosmos 2082 3.7 02:03:41 45° S 02:05:26 73° ESE 02:11:04 10° NNE
Cosmos 1844 Rocket 3.9 02:06:34 21° SSE 02:09:19 33° ESE 02:14:16 10° NE
Cosmos 1340 Rocket 3.4 02:06:07 10° NNW 02:09:07 41° WNW 02:09:07 41° WNW
Cosmos 2084 3.6 02:10:46 10° NNW 02:14:52 67° NE 02:18:57 10° SE
ADEOS II 4.0 02:11:00 10° NE 02:15:07 23° E 02:19:13 10° SE
Cosmos 1151 Rocket 4.2 02:19:10 28° WNW 02:19:19 28° WNW 02:23:02 10° NNW
Meteor 1-13 Rocket 4.2 02:17:04 36° S 02:19:27 85° E 02:25:11 10° N
Cosmos 1703 3.4 02:20:31 44° NW 02:20:31 44° NW 02:23:06 10° N
Resurs 1-4 Rocket 3.1 02:16:04 10° NNE 02:21:00 40° E 02:24:28 18° SSE
S3M 4.0 02:18:41 38° SSW 02:21:06 65° W 02:27:14 10° N
Cosmos 1633 Rocket 3.4 02:16:56 10° N 02:21:12 59° E 02:23:34 25° SSE
Atlas Centaur 2 3.8 02:20:31 26° S 02:21:42 27° SSE 02:28:13 10° ESE
Lacrosse 4 Rocket 3.8 02:21:04 11° WNW 02:22:34 12° NW 02:24:20 10° NNW
NOSS 2-2 (D) 4.0 02:23:58 32° SE 02:24:16 33° ESE 02:27:09 10° NE
Cosmos 2315 Rocket 4.0 02:24:18 33° SSW 02:27:19 74° W 02:33:40 10° N
USA 307 3.5 02:29:36 28° ESE 02:29:36 28° ESE 02:31:32 10° SE
BlueWalker 3 3.8 02:26:34 16° WNW 02:28:24 23° NNW 02:31:18 10° NE
Cosmos 1570 Rocket 4.2 02:34:00 35° SW 02:35:59 57° WNW 02:41:13 10° NNE
Cosmos 2298 Rocket 4.4 02:30:53 10° NNW 02:36:11 66° ENE 02:41:27 10° SSE
Tiangong -2.1 02:40:17 60° SSE 02:40:17 60° SSE 02:43:12 10° ESE
USA 281 3.3 02:35:09 10° SSE 02:41:43 78° ENE 02:48:18 10° NNW
Cosmos 1953 2.2 02:38:22 10° NNW 02:41:56 53° W 02:42:24 48° SW
Cosmos 1844 4.2 02:38:30 23° S 02:41:59 56° ESE 02:47:37 10° NNE
FENGYUN 3A 4.1 02:38:32 10° N 02:43:42 48° WNW 02:46:04 29° SW
ACS3 Solar Sail 3.6 02:40:23 10° NNW 02:43:57 17° WNW 02:46:37 13° W
Cosmos 2219 3.7 02:42:11 29° WSW 02:44:45 48° WNW 02:50:12 10° NNE
ADEOS Rocket 3.7 02:37:51 10° N 02:45:23 59° WNW 02:49:48 25° SW
SL-16 R/B 2.8 02:40:31 10° NW 02:45:38 35° WSW 02:47:18 29° SW
Cosmos 1125 Rocket 4.3 02:41:42 10° NW 02:46:18 31° W 02:47:14 29° WSW
CZ-4C R/B 4.3 02:42:29 10° NNW 02:48:54 40° NE 02:56:45 10° ESE
Cosmos 1666 Rocket 3.8 02:47:29 10° NNW 02:51:48 51° W 02:53:37 31° SSW
Cosmos 1709 Rocket 4.4 02:47:27 10° NNW 02:53:13 43° W 02:56:29 24° SW
CZ-2D R/B 2.3 02:50:55 10° NNE 02:56:20 74° ESE 03:00:37 17° S
NOAA 11 4.4 02:51:07 10° N 02:56:28 57° WNW 02:59:34 25° SW
H-2A R/B 2.7 02:53:10 10° SSE 02:56:39 56° ENE 03:00:10 10° N
NPP 4.5 02:52:56 10° N 02:57:49 36° WNW 03:00:26 23° WSW
ATLAS 2AS CENTAUR R/B 2.7 02:53:13 10° NW 03:00:01 86° NE 03:06:52 10° SE
Cosmos 2150 Rocket 4.0 02:56:10 10° NNW 03:01:35 71° WSW 03:06:59 10° S
IDEFIX/ARIANE 42P 3.9 02:57:57 10° N 03:02:08 25° WNW 03:04:33 18° WSW
Cosmos 1295 Rocket 4.5 02:58:15 10° N 03:04:32 88° E 03:10:42 10° S
ALOS 2.1 03:01:58 10° NNE 03:06:32 89° WNW 03:09:49 19° SSW
Cosmos 2227 Rocket 4.3 03:06:03 10° WNW 03:09:00 14° NW 03:11:58 10° NNW
Cosmos 783 Rocket 4.4 03:06:06 21° SSW 03:09:35 80° WNW 03:14:51 10° NNE
MOZ.5/SAFIR/RUBIN 5/SL-8 4.2 03:08:59 22° SSW 03:11:29 39° W 03:15:48 10° NNW
Cosmos 1515 Rocket 3.5 03:09:57 20° SSW 03:12:59 73° W 03:17:26 10° N
H-2A R/B 2.2 03:07:48 10° NNE 03:13:14 86° ESE 03:18:10 13° SSW
ARGOS 4.3 03:08:40 10° NNE 03:13:42 40° E 03:18:41 10° SSE
Meteor 1-12 Rocket 4.2 03:08:05 10° N 03:13:50 89° WSW 03:19:27 10° S
NOSS 7 (H) 4.1 03:13:17 10° NW 03:16:14 85° NE 03:19:33 10° SE
Cosmos 2227 4.3 03:14:32 20° SW 03:18:36 68° WNW 03:24:20 10° NNE
DMSP B5D2-2 4.4 03:14:45 13° S 03:19:07 46° W 03:24:08 10° NNW
Cosmos 2263 Rocket 4.1 03:18:30 10° W 03:21:58 16° NW 03:25:27 10° N
NOSS 2-2 (E) 2.8 03:21:53 22° SW 03:23:59 76° NW 03:27:02 10° NNE
IRIDIUM 104 4.3 03:20:03 10° N 03:25:17 79° W 03:30:29 10° S
Cosmos 1943 3.7 03:27:15 10° NW 03:32:24 38° WSW 03:37:32 10° S
Cosmos 2154 Rocket 4.0 03:27:03 10° N 03:33:17 75° W 03:39:28 10° S
Spot 2 4.4 03:28:43 10° S 03:33:37 64° WSW 03:38:28 10° NNW
IRIDIUM 114 4.3 03:29:15 10° N 03:34:25 65° W 03:39:34 10° S
Okean 2 4.0 03:32:30 17° SW 03:34:51 33° WNW 03:38:21 10° N
Envisat 3.8 03:32:06 10° N 03:36:43 36° WNW 03:40:38 13° SW
Cosmos 2074 Rocket 4.1 03:32:00 10° NNW 03:38:10 60° W 03:44:17 10° S
Cosmos 2184 Rocket 4.1 03:36:22 10° NNW 03:42:24 58° W 03:48:24 10° S
CENTAUR R/B 2.9 03:42:23 12° WSW 03:47:16 49° NW 03:54:00 10° NNE
Cosmos 1867 3.7 03:43:20 10° NW 03:48:40 56° WSW 03:53:58 10° SSE
METEOR-M 4.2 03:44:38 10° N 03:49:57 70° WNW 03:55:13 10° SSW
BREEZE-M DEB (TANK) 3.7 03:47:55 10° NW 03:50:09 30° NNE 03:52:10 10° E
Cosmos 1844 Rocket 3.5 03:48:13 11° WSW 03:53:05 38° WNW 03:58:17 10° N
ADEOS II 2.5 03:49:53 10° N 03:54:51 46° WNW 03:59:49 10° SW
USA 307 4.1 03:53:34 11° WSW 03:55:06 14° SW 03:56:59 10° SSW
Cosmos 1812 2.3 03:53:45 10° N 03:55:24 36° E 03:57:01 10° SSE
Cosmos 1603 3.8 03:51:18 10° NNW 03:56:55 56° WSW 04:02:29 10° S
Okean 1-7 3.9 03:55:52 10° SSE 03:59:49 49° E 04:03:48 10° NNE
Resurs 1-4 Rocket 3.2 03:56:09 10° N 04:00:35 28° WNW 04:04:59 10° WSW
AQUA 3.8 03:55:59 10° NNE 04:00:41 86° WNW 04:05:21 10° SSW
Cosmos 1933 Rocket 4.2 04:01:49 10° NNW 04:05:46 34° W 04:09:40 10° SSW
BlueWalker 3 4.4 04:04:25 10° NW 04:06:45 16° N 04:09:05 10° NE
Atlas Centaur 2 3.9 04:03:00 10° WSW 04:09:41 31° S 04:16:37 10° SE
